Time,TemperatureF,DewpointF,PressureIn,WindDirection,WindDirectionDegrees,WindSpeedMPH,WindSpeedGustMPH,Humidity,HourlyPrecipIn,Conditions,Clouds,dailyrainin,SolarRadiationWatts/m^2,SoftwareType,DateUTC
2013-08-26 00:12:00,69.0,58.0,30.18,SW,235,4.0,11.0,69,0.00,,,0.00,0,weatherlink.com 1.10,2013-08-26 04:12:00,
2013-08-26 00:27:00,68.5,59.0,30.18,SW,234,1.0,5.0,71,0.00,,,0.00,0,weatherlink.com 1.10,2013-08-26 04:27:00,
2013-08-26 00:42:00,68.1,58.0,30.18,SW,234,1.0,10.0,71,0.00,,,0.00,0,weatherlink.com 1.10,2013-08-26 04:42:00,
2013-08-26 00:57:00,68.1,58.0,30.18,SW,233,2.0,9.0,71,0.00,,,0.00,0,weatherlink.com 1.10,2013-08-26 04:57:00,
2013-08-26 01:12:00,68.1,59.0,30.17,SW,236,1.0,9.0,72,0.00,,,0.00,0,weatherlink.com 1.10,2013-08-26 05:12:00,
2013-08-26 01:27:00,67.8,59.0,30.17,SW,236,0.0,5.0,73,0.00,,,0.00,0,weatherlink.com 1.10,2013-08-26 05:27:00,
2013-08-26 01:42:00,67.7,59.0,30.16,SW,235,2.0,9.0,73,0.00,,,0.00,0,weatherlink.com 1.10,2013-08-26 05:42:00,
2013-08-26 01:57:00,67.7,59.0,30.15,SW,235,2.0,7.0,74,0.00,,,0.00,0,weatherlink.com 1.10,2013-08-26 05:57:00,
2013-08-26 02:12:00,67.9,59.0,30.15,SW,234,6.0,10.0,74,0.00,,,0.00,0,weatherlink.com 1.10,2013-08-26 06:12:00,
2013-08-26 02:27:00,67.9,59.0,30.15,SW,235,7.0,11.0,74,0.00,,,0.00,0,weatherlink.com 1.10,2013-08-26 06:27:00,
2013-08-26 02:42:00,68.0,59.0,30.14,WSW,238,5.0,13.0,74,0.00,,,0.00,0,weatherlink.com 1.10,2013-08-26 06:42:00,
2013-08-26 02:57:00,68.1,60.0,30.14,WSW,239,9.0,11.0,74,0.00,,,0.00,0,weatherlink.com 1.10,2013-08-26 06:57:00,
2013-08-26 03:12:00,68.2,59.0,30.13,WSW,244,1.0,6.0,73,0.00,,,0.00,0,weatherlink.com 1.10,2013-08-26 07:12:00,
2013-08-26 03:27:00,68.4,59.0,30.13,WSW,246,6.0,10.0,73,0.00,,,0.00,0,weatherlink.com 1.10,2013-08-26 07:27:00,
2013-08-26 03:42:00,68.5,60.0,30.13,WSW,248,2.0,9.0,73,0.00,,,0.00,0,weatherlink.com 1.10,2013-08-26 07:42:00,
2013-08-26 03:57:00,68.5,59.0,30.12,WSW,246,7.0,7.0,72,0.00,,,0.00,0,weatherlink.com 1.10,2013-08-26 07:57:00,
2013-08-26 04:12:00,68.7,59.0,30.12,WSW,244,1.0,10.0,72,0.00,,,0.00,0,weatherlink.com 1.10,2013-08-26 08:12:00,
2013-08-26 04:27:00,68.7,59.0,30.12,WSW,252,2.0,6.0,72,0.00,,,0.00,0,weatherlink.com 1.10,2013-08-26 08:27:00,
2013-08-26 04:42:00,68.8,59.0,30.12,WSW,254,3.0,8.0,72,0.00,,,0.00,0,weatherlink.com 1.10,2013-08-26 08:42:00,
2013-08-26 04:57:00,68.7,60.0,30.11,WSW,246,3.0,7.0,73,0.00,,,0.00,0,weatherlink.com 1.10,2013-08-26 08:57:00,
2013-08-26 05:12:00,68.4,59.0,30.11,WSW,241,2.0,12.0,73,0.00,,,0.00,0,weatherlink.com 1.10,2013-08-26 09:12:00,
2013-08-26 05:27:00,68.2,59.0,30.11,WSW,240,3.0,9.0,73,0.00,,,0.00,0,weatherlink.com 1.10,2013-08-26 09:27:00,
2013-08-26 05:42:00,68.0,59.0,30.11,WSW,240,4.0,8.0,74,0.00,,,0.00,0,weatherlink.com 1.10,2013-08-26 09:42:00,
2013-08-26 05:58:00,67.8,60.0,30.11,WSW,240,4.0,12.0,75,0.00,,,0.00,0,weatherlink.com 1.10,2013-08-26 09:58:00,
2013-08-26 06:13:00,67.8,59.0,30.09,WSW,238,5.0,12.0,74,0.00,,,0.00,0,weatherlink.com 1.10,2013-08-26 10:13:00,
2013-08-26 06:28:00,68.0,59.0,30.09,WSW,238,2.0,7.0,74,0.00,,,0.00,11,weatherlink.com 1.10,2013-08-26 10:28:00,
2013-08-26 06:43:00,68.3,60.0,30.09,WSW,239,5.0,11.0,75,0.00,,,0.00,16,weatherlink.com 1.10,2013-08-26 10:43:00,
2013-08-26 06:58:00,68.2,61.0,30.09,WSW,243,9.0,13.0,77,0.00,,,0.00,28,weatherlink.com 1.10,2013-08-26 10:58:00,
2013-08-26 07:13:00,68.0,61.0,30.09,WSW,250,0.0,10.0,77,0.00,,,0.00,40,weatherlink.com 1.10,2013-08-26 11:13:00,
2013-08-26 07:28:00,68.1,61.0,30.09,WSW,240,3.0,6.0,77,0.00,,,0.00,51,weatherlink.com 1.10,2013-08-26 11:28:00,
2013-08-26 07:43:00,68.1,60.0,30.09,WSW,241,7.0,9.0,76,0.00,,,0.00,49,weatherlink.com 1.10,2013-08-26 11:43:00,
2013-08-26 07:58:00,68.3,60.0,30.08,WSW,240,0.0,6.0,76,0.00,,,0.00,26,weatherlink.com 1.10,2013-08-26 11:58:00,
2013-08-26 08:13:00,68.3,61.0,30.09,WSW,242,1.0,10.0,78,0.00,,,0.00,37,weatherlink.com 1.10,2013-08-26 12:13:00,
2013-08-26 08:28:00,68.0,61.0,30.07,WSW,239,2.0,5.0,79,0.01,,,0.01,42,weatherlink.com 1.10,2013-08-26 12:28:00,
2013-08-26 08:43:00,67.3,61.0,30.07,SW,230,4.0,8.0,81,0.01,,,0.01,33,weatherlink.com 1.10,2013-08-26 12:43:00,
2013-08-26 08:58:00,66.9,62.0,30.07,SW,231,6.0,7.0,83,0.01,,,0.01,25,weatherlink.com 1.10,2013-08-26 12:58:00,
2013-08-26 09:13:00,67.2,62.0,30.06,SW,232,7.0,11.0,82,0.01,,,0.01,90,weatherlink.com 1.10,2013-08-26 13:13:00,
2013-08-26 09:28:00,67.7,62.0,30.05,SW,236,4.0,11.0,82,0.00,,,0.01,84,weatherlink.com 1.10,2013-08-26 13:28:00,
2013-08-26 09:43:00,68.2,62.0,30.05,WSW,245,2.0,12.0,80,0.00,,,0.01,62,weatherlink.com 1.10,2013-08-26 13:43:00,
2013-08-26 09:58:00,68.6,62.0,30.04,WSW,238,3.0,13.0,79,0.00,,,0.01,72,weatherlink.com 1.10,2013-08-26 13:58:00,
2013-08-26 10:13:00,69.2,62.0,30.04,SW,236,4.0,11.0,78,0.00,,,0.01,98,weatherlink.com 1.10,2013-08-26 14:13:00,
2013-08-26 10:28:00,69.4,62.0,30.03,SW,236,3.0,12.0,77,0.00,,,0.01,167,weatherlink.com 1.10,2013-08-26 14:28:00,
2013-08-26 10:43:00,69.9,62.0,30.04,SW,234,4.0,8.0,76,0.00,,,0.01,105,weatherlink.com 1.10,2013-08-26 14:43:00,
2013-08-26 10:58:00,70.6,63.0,30.02,SW,232,4.0,9.0,76,0.00,,,0.01,207,weatherlink.com 1.10,2013-08-26 14:58:00,
2013-08-26 11:13:00,72.1,63.0,30.01,SW,235,2.0,11.0,73,0.00,,,0.01,260,weatherlink.com 1.10,2013-08-26 15:13:00,
2013-08-26 11:28:00,73.9,64.0,30.01,SW,227,8.0,12.0,71,0.00,,,0.01,759,weatherlink.com 1.10,2013-08-26 15:28:00,
2013-08-26 11:43:00,76.7,65.0,30.00,WSW,247,11.0,15.0,67,0.00,,,0.01,747,weatherlink.com 1.10,2013-08-26 15:43:00,
2013-08-26 11:59:00,79.2,65.0,30.00,West,278,6.0,13.0,63,0.00,,,0.01,645,weatherlink.com 1.10,2013-08-26 15:59:00,
2013-08-26 12:14:00,81.3,66.0,29.99,West,265,12.0,16.0,59,0.00,,,0.01,828,weatherlink.com 1.10,2013-08-26 16:14:00,
2013-08-26 12:29:00,82.3,65.0,29.98,WSW,257,9.0,17.0,57,0.00,,,0.01,770,weatherlink.com 1.10,2013-08-26 16:29:00,
2013-08-26 12:44:00,83.0,67.0,29.98,West,270,8.0,14.0,59,0.00,,,0.01,408,weatherlink.com 1.10,2013-08-26 16:44:00,
2013-08-26 12:59:00,83.7,67.0,29.96,West,271,3.0,16.0,57,0.00,,,0.01,798,weatherlink.com 1.10,2013-08-26 16:59:00,
2013-08-26 13:14:00,84.4,66.0,29.96,WSW,258,8.0,20.0,55,0.00,,,0.01,540,weatherlink.com 1.10,2013-08-26 17:14:00,
2013-08-26 13:29:00,83.6,67.0,29.95,West,265,7.0,17.0,57,0.00,,,0.01,466,weatherlink.com 1.10,2013-08-26 17:29:00,
2013-08-26 13:44:00,83.4,67.0,29.94,WSW,254,8.0,16.0,57,0.00,,,0.01,172,weatherlink.com 1.10,2013-08-26 17:44:00,
2013-08-26 13:59:00,83.1,67.0,29.94,SW,223,9.0,16.0,58,0.00,,,0.01,183,weatherlink.com 1.10,2013-08-26 17:59:00,
2013-08-26 14:14:00,82.9,67.0,29.94,WSW,248,5.0,20.0,58,0.00,,,0.01,251,weatherlink.com 1.10,2013-08-26 18:14:00,
2013-08-26 14:29:00,82.4,67.0,29.93,SW,231,6.0,18.0,60,0.00,,,0.01,264,weatherlink.com 1.10,2013-08-26 18:29:00,
2013-08-26 14:44:00,82.1,67.0,29.93,West,270,9.0,18.0,60,0.00,,,0.01,267,weatherlink.com 1.10,2013-08-26 18:44:00,
2013-08-26 14:59:00,82.3,67.0,29.93,NW,306,1.0,11.0,60,0.00,,,0.01,232,weatherlink.com 1.10,2013-08-26 18:59:00,
2013-08-26 15:14:00,82.3,66.0,29.92,West,261,3.0,13.0,59,0.00,,,0.01,206,weatherlink.com 1.10,2013-08-26 19:14:00,
2013-08-26 15:44:00,81.4,68.0,29.91,WNW,302,3.0,14.0,63,0.00,,,0.01,181,weatherlink.com 1.10,2013-08-26 19:44:00,
2013-08-26 15:59:00,81.1,67.0,29.91,West,267,3.0,16.0,63,0.00,,,0.01,163,weatherlink.com 1.10,2013-08-26 19:59:00,
2013-08-26 16:14:00,80.8,67.0,29.90,WSW,255,6.0,12.0,64,0.00,,,0.01,160,weatherlink.com 1.10,2013-08-26 20:14:00,
2013-08-26 16:29:00,80.9,67.0,29.90,WSW,257,6.0,14.0,63,0.00,,,0.01,111,weatherlink.com 1.10,2013-08-26 20:29:00,
2013-08-26 16:44:00,80.5,67.0,29.90,West,262,8.0,16.0,64,0.00,,,0.01,88,weatherlink.com 1.10,2013-08-26 20:44:00,
2013-08-26 16:59:00,79.9,67.0,29.90,West,272,3.0,14.0,65,0.00,,,0.01,98,weatherlink.com 1.10,2013-08-26 20:59:00,
2013-08-26 17:14:00,79.6,67.0,29.90,WNW,294,2.0,11.0,65,0.00,,,0.01,72,weatherlink.com 1.10,2013-08-26 21:14:00,
2013-08-26 17:29:00,79.4,67.0,29.90,WNW,298,4.0,13.0,66,0.00,,,0.01,56,weatherlink.com 1.10,2013-08-26 21:29:00,
2013-08-26 17:44:00,79.3,67.0,29.90,WSW,255,2.0,13.0,67,0.00,,,0.01,79,weatherlink.com 1.10,2013-08-26 21:44:00,
2013-08-26 17:59:00,79.2,67.0,29.89,WSW,250,1.0,10.0,67,0.00,,,0.01,62,weatherlink.com 1.10,2013-08-26 21:59:00,
2013-08-26 18:14:00,79.1,67.0,29.89,WSW,249,3.0,12.0,67,0.00,,,0.01,44,weatherlink.com 1.10,2013-08-26 22:14:00,
2013-08-26 18:29:00,78.8,67.0,29.89,WSW,246,7.0,14.0,68,0.00,,,0.01,46,weatherlink.com 1.10,2013-08-26 22:29:00,
2013-08-26 18:44:00,78.4,67.0,29.89,WSW,246,7.0,14.0,69,0.00,,,0.01,37,weatherlink.com 1.10,2013-08-26 22:44:00,
2013-08-26 18:59:00,78.1,67.0,29.89,West,266,5.0,11.0,69,0.00,,,0.01,16,weatherlink.com 1.10,2013-08-26 22:59:00,
2013-08-26 19:14:00,77.9,67.0,29.89,WSW,253,10.0,15.0,70,0.00,,,0.01,7,weatherlink.com 1.10,2013-08-26 23:14:00,
2013-08-26 19:29:00,77.7,68.0,29.89,WSW,252,5.0,10.0,71,0.00,,,0.01,0,weatherlink.com 1.10,2013-08-26 23:29:00,
2013-08-26 19:44:00,77.5,68.0,29.89,WSW,246,4.0,8.0,72,0.00,,,0.01,0,weatherlink.com 1.10,2013-08-26 23:44:00,
2013-08-26 19:59:00,77.1,67.0,29.88,WSW,241,4.0,8.0,72,0.00,,,0.01,0,weatherlink.com 1.10,2013-08-26 23:59:00,
2013-08-26 20:14:00,76.4,68.0,29.88,WSW,237,3.0,7.0,74,0.00,,,0.01,0,weatherlink.com 1.10,2013-08-27 00:14:00,
2013-08-26 20:29:00,75.9,67.0,29.89,WSW,244,5.0,8.0,75,0.00,,,0.01,0,weatherlink.com 1.10,2013-08-27 00:29:00,
2013-08-26 20:44:00,76.1,68.0,29.89,WSW,238,1.0,11.0,75,0.00,,,0.01,0,weatherlink.com 1.10,2013-08-27 00:44:00,
2013-08-26 20:59:00,76.2,68.0,29.89,WSW,239,3.0,9.0,75,0.00,,,0.01,0,weatherlink.com 1.10,2013-08-27 00:59:00,
2013-08-26 21:14:00,75.9,67.0,29.89,WSW,245,4.0,9.0,75,0.00,,,0.01,0,weatherlink.com 1.10,2013-08-27 01:14:00,
2013-08-26 21:29:00,75.6,67.0,29.88,WSW,238,12.0,12.0,75,0.00,,,0.01,0,weatherlink.com 1.10,2013-08-27 01:29:00,
2013-08-26 21:44:00,75.4,67.0,29.88,WSW,246,1.0,12.0,76,0.00,,,0.01,0,weatherlink.com 1.10,2013-08-27 01:44:00,
2013-08-26 21:59:00,75.2,67.0,29.88,WSW,255,7.0,12.0,76,0.00,,,0.01,0,weatherlink.com 1.10,2013-08-27 01:59:00,
2013-08-26 22:14:00,75.0,67.0,29.88,WSW,257,5.0,9.0,77,0.00,,,0.01,0,weatherlink.com 1.10,2013-08-27 02:14:00,
2013-08-26 22:29:00,74.9,67.0,29.88,West,259,4.0,12.0,77,0.00,,,0.01,0,weatherlink.com 1.10,2013-08-27 02:29:00,
2013-08-26 22:44:00,74.9,67.0,29.89,WSW,254,4.0,9.0,77,0.00,,,0.01,0,weatherlink.com 1.10,2013-08-27 02:44:00,
2013-08-26 22:59:00,74.8,67.0,29.88,West,260,3.0,8.0,77,0.00,,,0.01,0,weatherlink.com 1.10,2013-08-27 02:59:00,
2013-08-26 23:14:00,74.7,67.0,29.88,WSW,257,4.0,11.0,78,0.00,,,0.01,0,weatherlink.com 1.10,2013-08-27 03:14:00,
2013-08-26 23:29:00,74.6,67.0,29.86,WSW,255,3.0,9.0,78,0.00,,,0.01,0,weatherlink.com 1.10,2013-08-27 03:29:00,
2013-08-26 23:45:00,74.5,67.0,29.86,WSW,254,1.0,6.0,78,0.00,,,0.01,0,weatherlink.com 1.10,2013-08-27 03:45:00,